TimeEST,TemperatureF,Dew PointF,Humidity,Sea Level PressureIn,VisibilityMPH,Wind Direction,Wind SpeedMPH,Gust SpeedMPH,PrecipitationIn,Events,Conditions,WindDirDegrees,DateUTC
12:15 AM,62.6,62.6,100,30.14,10.0,South,6.9,-,N/A,,Scattered Clouds,190,2013-01-30 05:15:00
6:35 AM,64.4,64.4,100,30.05,10.0,South,8.1,-,N/A,,Clear,180,2013-01-30 11:35:00
6:55 AM,64.4,64.4,100,30.06,10.0,South,9.2,-,N/A,,Clear,180,2013-01-30 11:55:00
7:15 AM,64.4,64.4,100,30.06,10.0,SSW,5.8,-,N/A,,Mostly Cloudy,200,2013-01-30 12:15:00
7:35 AM,64.4,64.4,100,30.04,10.0,South,10.4,-,N/A,,Overcast,170,2013-01-30 12:35:00
7:55 AM,64.4,64.4,100,30.03,10.0,South,10.4,-,N/A,,Overcast,170,2013-01-30 12:55:00
8:15 AM,64.4,64.4,100,30.04,10.0,South,8.1,-,N/A,,Overcast,180,2013-01-30 13:15:00
8:35 AM,66.2,66.2,100,30.03,10.0,South,11.5,-,N/A,,Scattered Clouds,170,2013-01-30 13:35:00
8:55 AM,68.0,66.2,94,30.02,10.0,South,9.2,-,N/A,,Mostly Cloudy,180,2013-01-30 13:55:00
9:15 AM,69.8,68.0,94,30.01,10.0,South,10.4,-,N/A,,Overcast,180,2013-01-30 14:15:00
9:35 AM,69.8,66.2,88,30.02,10.0,South,15.0,20.7,N/A,,Overcast,190,2013-01-30 14:35:00
9:55 AM,69.8,66.2,88,30.02,10.0,South,16.1,19.6,N/A,,Overcast,190,2013-01-30 14:55:00
10:15 AM,69.8,66.2,88,30.01,10.0,South,12.7,17.3,N/A,,Overcast,190,2013-01-30 15:15:00
10:55 AM,73.4,64.4,73,30.01,10.0,South,16.1,24.2,N/A,,Overcast,190,2013-01-30 15:55:00
11:15 AM,73.4,64.4,73,29.99,10.0,South,16.1,29.9,N/A,,Overcast,190,2013-01-30 16:15:00
11:35 AM,73.4,64.4,73,29.98,10.0,SSW,17.3,29.9,N/A,,Overcast,200,2013-01-30 16:35:00
12:35 PM,73.4,64.4,73,29.94,10.0,South,13.8,24.2,N/A,,Overcast,180,2013-01-30 17:35:00
12:55 PM,73.4,64.4,73,29.93,10.0,South,18.4,29.9,N/A,,Overcast,190,2013-01-30 17:55:00
1:15 PM,69.8,66.2,88,29.92,10.0,SSW,10.4,21.9,N/A,,Drizzle,200,2013-01-30 18:15:00
1:35 PM,68.0,68.0,100,29.92,10.0,SSW,15.0,19.6,N/A,,Overcast,200,2013-01-30 18:35:00
2:15 PM,69.8,69.8,100,29.89,10.0,SSW,16.1,21.9,N/A,,Overcast,210,2013-01-30 19:15:00
2:35 PM,69.8,69.8,100,29.88,10.0,SSW,16.1,26.5,N/A,,Mostly Cloudy,200,2013-01-30 19:35:00
3:15 PM,71.6,68.0,88,29.86,10.0,SSW,15.0,26.5,N/A,,Mostly Cloudy,200,2013-01-30 20:15:00
4:15 PM,71.6,66.2,83,29.84,10.0,South,16.1,29.9,N/A,,Mostly Cloudy,190,2013-01-30 21:15:00
5:15 PM,69.8,64.4,83,29.81,10.0,South,18.4,28.8,N/A,,Clear,190,2013-01-30 22:15:00
5:55 PM,69.8,64.4,83,29.80,10.0,South,16.1,27.6,N/A,,Overcast,190,2013-01-30 22:55:00
6:15 PM,69.8,64.4,83,29.79,10.0,South,19.6,29.9,N/A,,Overcast,180,2013-01-30 23:15:00
6:35 PM,68.0,64.4,88,29.77,10.0,South,18.4,32.2,N/A,,Mostly Cloudy,180,2013-01-30 23:35:00
6:55 PM,68.0,64.4,88,29.76,10.0,South,21.9,28.8,N/A,,Scattered Clouds,190,2013-01-30 23:55:00
7:15 PM,68.0,64.4,88,29.75,10.0,South,18.4,32.2,N/A,,Clear,190,2013-01-31 00:15:00
7:55 PM,68.0,64.4,88,29.74,10.0,South,19.6,29.9,N/A,,Clear,190,2013-01-31 00:55:00
8:15 PM,69.8,64.4,83,29.73,10.0,South,20.7,29.9,N/A,,Mostly Cloudy,190,2013-01-31 01:15:00
9:15 PM,69.8,64.4,83,29.72,10.0,South,20.7,36.8,N/A,,Mostly Cloudy,190,2013-01-31 02:15:00
9:35 PM,69.8,64.4,83,29.72,10.0,South,19.6,34.5,N/A,,Scattered Clouds,190,2013-01-31 02:35:00
11:15 PM,69.8,66.2,88,29.65,10.0,South,20.7,34.5,N/A,,Scattered Clouds,190,2013-01-31 04:15:00
11:35 PM,69.8,66.2,88,29.64,10.0,South,19.6,41.4,N/A,,Mostly Cloudy,190,2013-01-31 04:35:00